Tracking 18957 objects as of 22-Jan-2018
HD Live streaming from Space Station
objects crossing your sky now

FENGYUN 1C DEB

Track FENGYUN 1C DEB now!
10-day predictions


NORAD ID: 29994
Int'l Code: 1999-025LU
Perigee: 797.5 km
Apogee: 996.6 km
Inclination: 99.2 °
Period: 102.8 minutes
Semi major axis: 7268 km
RCS: 0.194 m2 (medium)
Launch date: May 10, 1999
Source: People's Republic of China (PRC)
Launch site: Taiyaun Space Center, China (TSC)

Note: This is SATELLITE DEBRIS
aabbcc
Your satellite tracking list
Your tracking list is empty




NASA's NSSDC Master Catalog

Two Line Element Set (TLE):
1 29994U 99025LU  18021.51890997 +.00000114 +00000-0 +98699-4 0  9999
2 29994 099.1994 049.7466 0136986 277.9575 241.3653 14.01127517563521
Source of the keplerian elements: AFSPC